Temp
-19 -19 -19 -19 -19 -19 -19 -19 -19 -18 -18 -18 -18 -18 -18 -18 -18 -17 -17 -17 -17 -17 -17 -16 -16 -16 -15 -16 -16 -16 -16 -16 -16 -16 -15 -15 -15 -15 -15 -15 -15 -14
-20 -20 -19 -19 -19 -19 -19 -19 -19 -19 -19 -19 -18 -18 -18 -18 -18 -18 -18 -18 -17 -17 -17 -17 -17 -16 -16 -16 -16 -16 -17 -16 -16 -16 -16 -15 -15 -15 -15 -15 -15 -15
-20 -20 -20 -20 -20 -20 -19 -19 -19 -19 -19 -19 -19 -19 -19 -18 -18 -18 -18 -18 -18 -18 -18 -18 -17 -17 -17 -17 -16 -16 -17 -17 -17 -17 -16 -16 -16 -15 -15 -15 -16 -15
-21 -20 -20 -20 -20 -20 -20 -20 -20 -20 -19 -19 -19 -19 -19 -19 -19 -18 -18 -18 -18 -18 -18 -18 -18 -18 -18 -17 -17 -17 -17 -17 -17 -17 -17 -17 -16 -16 -16 -16 -16 -16
-21 -21 -21 -21 -21 -20 -20 -20 -20 -20 -20 -20 -20 -20 -19 -19 -19 -19 -19 -18 -18 -18 -18 -18 -18 -18 -18 -18 -18 -17 -17 -17 -17 -17 -17 -17 -17 -17 -17 -16 -16 -16
-22 -22 -21 -21 -21 -21 -21 -21 -21 -20 -20 -20 -20 -20 -20 -20 -20 -19 -19 -19 -19 -19 -18 -18 -18 -18 -18 -18 -18 -18 -18 -18 -18 -18 -18 -18 -18 -17 -17 -17 -17 -17
-23 -22 -22 -22 -22 -22 -21 -21 -21 -21 -21 -21 -20 -20 -20 -20 -20 -20 -20 -20 -19 -19 -19 -19 -19 -19 -19 -19 -19 -19 -18 -18 -18 -18 -18 -18 -18 -18 -18 -18 -18 -18
-23 -23 -23 -23 -22 -22 -22 -22 -22 -21 -21 -21 -21 -21 -21 -21 -20 -20 -20 -20 -20 -20 -19 -19 -19 -19 -19 -19 -19 -19 -19 -19 -19 -18 -19 -19 -19 -18 -18 -18 -18 -18
-24 -24 -24 -23 -23 -23 -23 -22 -22 -22 -22 -22 -21 -21 -21 -21 -21 -21 -21 -21 -20 -20 -20 -20 -20 -19 -19 -19 -19 -19 -19 -19 -19 -19 -19 -19 -19 -19 -19 -19 -18 -18
-24 -24 -24 -24 -24 -24 -23 -23 -23 -23 -22 -22 -22 -22 -22 -21 -21 -21 -21 -21 -21 -21 -21 -20 -20 -20 -20 -20 -19 -19 -19 -19 -19 -19 -19 -19 -19 -19 -19 -19 -19 -19
-24 -24 -24 -24 -24 -24 -24 -24 -24 -23 -23 -23 -23 -23 -22 -22 -22 -22 -22 -21 -21 -21 -21 -21 -21 -21 -20 -20 -20 -20 -20 -20 -20 -20 -19 -19 -19 -19 -19 -19 -19 -19
-25 -25 -24 -24 -24 -24 -24 -24 -24 -24 -24 -24 -23 -23 -23 -23 -23 -22 -22 -22 -22 -22 -22 -21 -21 -21 -21 -21 -21 -20 -20 -20 -20 -20 -20 -20 -20 -20 -20 -19 -19 -19
-25 -25 -25 -25 -25 -25 -24 -24 -24 -24 -24 -24 -24 -24 -24 -23 -23 -23 -23 -23 -22 -22 -22 -22 -22 -22 -21 -21 -21 -21 -21 -21 -20 -20 -20 -20 -20 -20 -20 -20 -20 -20
-25 -25 -25 -25 -25 -25 -25 -25 -25 -24 -24 -24 -24 -24 -24 -24 -24 -24 -23 -23 -23 -23 -23 -22 -22 -22 -22 -22 -22 -21 -21 -21 -21 -21 -21 -21 -21 -21 -21 -20 -20 -20
-26 -26 -26 -26 -25 -25 -25 -25 -25 -25 -25 -25 -24 -24 -24 -24 -24 -24 -24 -24 -24 -23 -23 -23 -23 -23 -22 -22 -22 -22 -22 -22 -21 -21 -21 -21 -21 -21 -21 -21 -21 -21
-26 -26 -26 -26 -26 -26 -26 -26 -25 -25 -25 -25 -25 -25 -25 -24 -24 -24 -24 -24 -24 -24 -24 -24 -23 -23 -23 -23 -23 -22 -22 -22 -22 -22 -22 -21 -21 -21 -21 -21 -21 -21
-26 -26 -26 -26 -26 -26 -26 -26 -26 -26 -25 -25 -25 -25 -25 -25 -25 -25 -24 -24 -24 -24 -24 -24 -24 -24 -24 -23 -23 -23 -23 -22 -22 -22 -22 -22 -22 -22 -22 -22 -21 -21
-26 -26 -26 -26 -26 -26 -26 -26 -26 -26 -26 -26 -26 -25 -25 -25 -25 -25 -25 -25 -25 -25 -24 -24 -24 -24 -24 -24 -24 -24 -23 -23 -23 -23 -23 -23 -22 -22 -22 -22 -22 -22
-27 -26 -26 -26 -26 -26 -26 -26 -26 -26 -26 -26 -26 -26 -26 -26 -25 -25 -25 -25 -25 -25 -25 -25 -25 -24 -24 -24 -24 -24 -24 -24 -23 -23 -23 -23 -23 -23 -23 -22 -22 -22
-27 -27 -27 -27 -27 -27 -27 -27 -27 -27 -27 -27 -26 -26 -26 -26 -26 -26 -26 -26 -25 -25 -25 -25 -25 -25 -25 -25 -24 -24 -24 -24 -24 -24 -24 -23 -23 -23 -23 -23 -23 -23
-29 -29 -29 -29 -29 -29 -29 -28 -28 -28 -28 -28 -28 -28 -27 -27 -27 -26 -26 -26 -26 -26 -26 -26 -25 -25 -25 -25 -25 -25 -25 -24 -24 -24 -24 -24 -24 -24 -24 -23 -23 -23
-30 -30 -30 -30 -30 -30 -30 -30 -30 -30 -30 -29 -29 -29 -29 -29 -28 -28 -28 -27 -27 -27 -26 -26 -26 -26 -26 -26 -25 -25 -25 -25 -25 -24 -24 -24 -24 -24 -24 -24 -24 -24
-31 -31 -31 -31 -31 -32 -32 -32 -31 -31 -31 -31 -31 -31 -31 -30 -30 -30 -29 -29 -28 -28 -28 -27 -27 -27 -27 -26 -26 -26 -26 -25 -25 -25 -25 -25 -25 -24 -24 -24 -24 -24
-32 -32 -32 -33 -33 -33 -33 -33 -33 -33 -32 -32 -32 -32 -32 -32 -31 -31 -31 -30 -30 -30 -29 -29 -29 -28 -28 -28 -27 -27 -26 -26 -26 -25 -25 -25 -25 -25 -25 -25 -25 -25
-33 -33 -33 -34 -34 -34 -34 -34 -34 -33 -33 -33 -33 -33 -33 -33 -33 -32 -32 -32 -32 -31 -31 -30 -30 -30 -30 -29 -29 -28 -28 -27 -27 -26 -26 -26 -26 -25 -25 -25 -25 -25
-34 -34 -34 -34 -34 -34 -34 -34 -34 -34 -34 -34 -34 -34 -34 -34 -34 -33 -33 -33 -33 -33 -32 -32 -32 -31 -31 -31 -30 -30 -29 -29 -28 -28 -27 -27 -26 -26 -26 -26 -26 -25
Height
5606 5607 5607 5608 5608 5609 5609 5610 5611 5612 5612 5613 5614 5614 5615 5616 5617 5618 5619 5620 5620 5621 5622 5623 5623 5624 5624 5624 5625 5626 5628 5628 5629 5630 5633 5635 5636 5636 5637 5639 5641 5642
5597 5598 5598 5599 5599 5600 5600 5601 5602 5602 5603 5604 5605 5606 5606 5607 5608 5609 5609 5610 5611 5612 5613 5614 5615 5616 5616 5616 5616 5617 5618 5620 5621 5621 5623 5624 5626 5627 5627 5629 5631 5633
5588 5588 5589 5589 5590 5590 5591 5592 5592 5593 5594 5594 5595 5596 5597 5598 5599 5599 5600 5601 5602 5603 5604 5605 5605 5606 5607 5608 5608 5608 5608 5610 5611 5613 5614 5614 5616 5618 5618 5619 5621 5623
5578 5579 5579 5580 5580 5581 5581 5582 5583 5583 5584 5585 5585 5586 5587 5588 5589 5590 5591 5592 5592 5593 5594 5595 5596 5597 5598 5599 5600 5600 5600 5600 5601 5603 5604 5605 5606 5608 5609 5610 5610 5612
5569 5569 5570 5570 5570 5571 5571 5572 5573 5573 5574 5575 5575 5576 5577 5578 5579 5580 5581 5582 5583 5583 5584 5585 5586 5587 5588 5589 5590 5591 5591 5592 5592 5593 5594 5595 5597 5598 5599 5600 5600 5601
5559 5559 5560 5560 5560 5561 5561 5562 5563 5563 5564 5564 5565 5566 5567 5568 5569 5570 5571 5572 5572 5573 5574 5575 5576 5577 5578 5579 5580 5581 5582 5583 5583 5584 5585 5585 5587 5588 5589 5590 5591 5591
5549 5550 5550 5550 5550 5551 5551 5551 5552 5553 5553 5554 5554 5555 5556 5557 5558 5559 5560 5561 5562 5563 5564 5565 5565 5566 5567 5569 5570 5571 5572 5573 5574 5575 5575 5576 5577 5578 5579 5580 5581 5582
5539 5540 5540 5540 5540 5540 5541 5541 5541 5542 5542 5543 5544 5544 5545 5546 5547 5548 5549 5550 5551 5552 5553 5554 5555 5556 5557 5558 5559 5560 5561 5563 5564 5565 5566 5567 5568 5568 5569 5570 5571 5572
5530 5530 5529 5530 5530 5530 5530 5530 5531 5531 5532 5532 5532 5533 5534 5534 5535 5536 5537 5538 5539 5540 5541 5542 5544 5545 5546 5547 5548 5549 5550 5551 5553 5554 5555 5556 5557 5558 5560 5561 5562 5562
5520 5520 5520 5519 5519 5519 5520 5520 5520 5520 5521 5521 5521 5522 5522 5523 5523 5524 5525 5526 5527 5528 5529 5530 5532 5533 5534 5535 5536 5537 5539 5540 5541 5542 5544 5545 5546 5547 5549 5550 5552 5553
5511 5511 5510 5509 5509 5509 5509 5509 5509 5509 5509 5510 5510 5511 5511 5511 5512 5512 5513 5514 5515 5516 5517 5518 5519 5521 5522 5523 5524 5526 5527 5528 5529 5530 5532 5533 5534 5536 5537 5539 5540 5541
5501 5501 5500 5499 5499 5498 5498 5498 5498 5498 5498 5498 5499 5499 5499 5500 5500 5501 5501 5502 5502 5503 5504 5505 5506 5508 5509 5510 5512 5513 5515 5516 5517 5519 5520 5521 5522 5523 5524 5527 5528 5529
5491 5490 5489 5488 5488 5487 5487 5486 5486 5486 5486 5486 5486 5487 5487 5487 5488 5488 5489 5490 5490 5490 5491 5492 5493 5494 5496 5497 5499 5500 5502 5504 5506 5507 5508 5509 5509 5510 5512 5514 5516 5517
5480 5479 5478 5477 5477 5476 5475 5474 5474 5474 5474 5474 5474 5474 5474 5474 5475 5476 5476 5477 5477 5478 5478 5478 5479 5480 5482 5483 5485 5487 5489 5491 5493 5494 5496 5497 5497 5498 5499 5500 5502 5504
5469 5468 5467 5466 5465 5464 5463 5462 5461 5461 5461 5461 5461 5461 5461 5461 5462 5462 5463 5463 5464 5464 5465 5465 5465 5466 5468 5469 5471 5473 5475 5478 5480 5482 5483 5484 5485 5485 5486 5488 5489 5491
5457 5456 5455 5453 5452 5451 5450 5449 5448 5448 5448 5448 5447 5447 5447 5448 5448 5448 5449 5450 5450 5451 5451 5451 5451 5452 5454 5455 5456 5458 5461 5464 5466 5469 5470 5471 5472 5473 5474 5475 5476 5478
5446 5444 5442 5440 5439 5438 5437 5436 5435 5434 5434 5434 5434 5434 5433 5433 5434 5434 5435 5436 5436 5437 5437 5436 5437 5438 5439 5440 5441 5443 5446 5449 5453 5455 5457 5457 5458 5460 5461 5462 5463 5464
5433 5431 5429 5427 5425 5423 5422 5421 5420 5420 5420 5420 5419 5419 5419 5419 5419 5420 5420 5421 5422 5422 5422 5422 5422 5423 5425 5426 5427 5428 5430 5434 5438 5441 5442 5443 5444 5446 5448 5449 5450 5451
5420 5418 5415 5412 5410 5408 5407 5406 5405 5404 5404 5404 5404 5403 5403 5404 5404 5404 5405 5405 5406 5407 5407 5406 5406 5408 5409 5410 5412 5413 5415 5418 5423 5426 5427 5428 5430 5431 5433 5434 5436 5438
5407 5404 5401 5398 5395 5393 5391 5390 5389 5388 5388 5388 5388 5387 5387 5388 5388 5388 5389 5389 5390 5391 5392 5391 5391 5392 5394 5395 5396 5398 5399 5403 5407 5410 5411 5412 5414 5416 5418 5419 5421 5423
5394 5390 5387 5384 5381 5379 5377 5375 5374 5373 5373 5373 5372 5371 5371 5372 5372 5372 5373 5373 5374 5375 5376 5376 5375 5377 5378 5379 5380 5382 5384 5387 5391 5393 5395 5397 5398 5400 5402 5404 5407 5409
5381 5378 5374 5371 5368 5366 5364 5361 5360 5359 5358 5358 5357 5356 5356 5356 5356 5356 5356 5357 5357 5359 5360 5360 5359 5360 5362 5363 5364 5366 5368 5371 5374 5376 5379 5381 5383 5384 5386 5389 5391 5394
5370 5366 5363 5359 5356 5354 5352 5349 5348 5347 5345 5345 5344 5343 5342 5341 5341 5341 5341 5341 5342 5343 5344 5345 5344 5344 5346 5347 5348 5349 5351 5354 5357 5360 5362 5365 5367 5368 5370 5373 5376 5378
5359 5356 5352 5349 5346 5343 5341 5338 5337 5335 5334 5333 5332 5331 5329 5328 5328 5328 5327 5327 5327 5328 5329 5330 5330 5329 5330 5331 5331 5332 5334 5338 5340 5343 5346 5348 5350 5352 5354 5357 5359 5361
5349 5346 5342 5339 5336 5333 5330 5328 5326 5325 5323 5322 5320 5319 5318 5317 5316 5316 5315 5314 5314 5314 5315 5316 5317 5316 5315 5315 5316 5316 5318 5321 5324 5327 5329 5331 5333 5336 5338 5341 5343 5345
5340 5337 5333 5330 5327 5324 5321 5318 5317 5315 5313 5311 5310 5309 5308 5306 5305 5305 5304 5302 5302 5302 5302 5303 5304 5303 5302 5301 5301 5302 5303 5305 5308 5310 5312 5315 5317 5320 5322 5325 5327 5329
Wind_Speed
72 72 72 72 72 72 72 72 72 72 72 72 71 71 71 71 71 70 71 71 71 71 72 73 75 77 79 79 76 74 75 76 77 77 77 78 80 80 78 75 74 74
74 74 74 74 74 74 74 74 74 74 74 74 74 74 73 73 73 72 72 72 72 72 72 72 73 74 77 78 78 75 73 72 74 75 75 77 79 81 81 80 77 77
75 75 76 76 76 76 76 76 76 76 76 76 76 76 76 76 76 75 75 74 74 74 73 73 73 73 74 76 78 78 75 73 72 72 73 74 76 79 81 81 79 78
76 76 77 77 77 77 78 78 78 78 78 78 78 78 77 77 78 78 78 77 77 76 76 75 75 74 74 75 76 77 78 76 74 72 72 72 73 75 77 79 79 77
74 75 77 77 78 78 79 79 79 79 80 80 79 79 79 79 79 79 79 80 80 79 79 78 77 77 76 76 76 76 77 77 77 75 73 72 73 73 74 76 77 77
73 74 75 76 78 78 79 80 80 80 81 81 81 81 81 81 81 81 81 81 82 82 82 81 81 80 79 78 77 77 77 77 77 77 75 74 73 73 74 74 75 76
74 74 75 75 76 78 79 80 81 81 82 82 83 83 83 82 82 82 83 83 83 83 83 83 83 83 82 81 80 80 79 78 78 78 77 76 75 74 74 74 74 74
74 75 76 76 77 77 78 79 80 81 82 83 83 84 84 84 84 84 84 84 84 85 85 85 85 85 85 84 84 83 82 81 81 80 79 78 77 76 76 75 75 74
73 74 75 77 78 78 79 79 80 80 81 82 83 84 85 85 85 85 85 85 85 85 86 86 87 87 87 87 86 86 85 85 84 83 83 82 81 80 78 78 77 77
72 73 74 76 77 79 80 81 81 81 82 82 83 84 85 86 86 87 87 86 86 86 87 87 87 88 88 88 89 88 88 88 87 86 86 85 84 83 82 81 80 79
73 74 75 76 77 78 79 80 82 83 83 84 84 84 85 86 86 87 88 88 88 88 88 88 88 88 89 89 90 90 90 90 89 89 88 88 87 87 86 85 84 83
74 75 76 77 78 79 79 80 81 82 83 84 85 86 86 86 86 87 88 89 89 90 89 89 89 90 90 90 90 90 91 91 91 91 90 90 90 89 89 88 87 87
74 75 76 78 79 80 81 82 82 83 84 84 85 86 87 88 88 88 89 89 90 90 91 91 91 91 91 91 91 91 91 91 92 92 92 92 92 91 91 91 90 89
74 75 76 77 78 80 81 82 83 84 85 86 86 87 88 88 89 90 90 90 91 91 91 92 92 93 93 93 93 92 92 92 92 92 92 93 93 93 93 93 92 92
74 75 77 78 79 80 81 82 83 84 86 87 88 89 89 90 90 91 91 92 92 93 93 93 94 94 94 94 94 94 94 93 93 93 93 93 93 94 94 94 94 94
76 77 78 79 80 81 82 83 84 85 85 86 88 89 90 91 92 92 93 93 93 94 94 95 95 96 96 96 96 96 96 95 95 94 94 94 94 94 95 95 95 95
78 80 81 82 83 83 84 85 86 86 87 87 88 89 90 91 92 93 94 95 95 95 96 96 97 97 98 98 98 98 98 97 96 96 96 96 96 96 96 96 96 96
81 82 83 85 86 86 87 88 88 89 89 89 90 90 91 91 92 93 94 95 96 97 97 98 99 99 99 99 100 100 100 100 99 97 97 97 97 97 97 97 97 97
82 83 84 85 86 87 88 89 90 91 91 92 92 93 93 93 93 94 94 95 96 96 98 99 100 100 101 101 101 101 102 101 101 100 100 99 99 99 98 99 99 98
81 82 83 84 85 86 87 88 89 89 90 91 92 93 94 95 95 96 96 96 97 97 98 99 100 101 101 102 102 103 103 103 102 102 102 102 101 101 100 100 100 100
78 78 79 80 81 82 83 84 85 85 86 87 88 90 91 93 94 95 96 97 98 98 99 100 100 101 102 102 103 104 104 104 104 104 103 103 103 103 103 102 102 101
74 75 75 76 76 77 77 78 79 80 81 82 83 84 86 88 89 91 93 94 96 97 98 99 100 101 102 103 103 104 105 105 105 105 105 105 105 105 105 104 104 104
71 71 71 71 72 72 72 73 73 74 75 76 77 78 79 81 83 85 87 89 91 93 94 96 97 99 100 102 103 104 105 105 105 106 106 106 106 106 106 106 105 105
67 67 67 67 67 68 68 68 69 69 70 71 71 72 73 74 76 77 79 82 84 86 88 90 91 93 96 98 100 102 103 104 105 105 106 106 107 107 107 107 107 107
63 63 63 64 64 64 65 65 65 65 66 66 66 67 68 69 70 71 73 75 77 79 81 83 84 86 89 91 93 96 99 101 103 104 104 105 106 107 107 107 107 107
60 60 60 61 61 61 62 62 62 62 62 62 62 63 63 64 65 66 67 68 70 72 74 76 77 79 81 84 86 89 92 95 97 99 101 103 104 105 105 106 106 107
Wind_Direction
260 260 260 260 260 261 261 261 260 260 260 260 260 260 260 260 260 259 259 258 258 258 258 257 257 258 260 263 264 264 263 263 263 263 262 261 261 262 262 260 257 255
260 260 260 260 260 260 260 260 260 260 260 260 260 260 260 260 260 260 260 259 259 259 259 258 258 258 258 260 263 264 264 263 263 263 262 262 261 261 262 262 260 258
261 261 261 260 260 260 260 260 260 260 260 260 260 260 260 260 260 260 260 260 260 260 259 259 259 259 258 258 260 262 264 264 263 262 262 262 261 261 262 263 262 261
261 261 261 261 261 261 261 260 260 260 260 260 260 260 260 260 259 260 260 260 260 260 260 260 260 260 259 259 259 260 262 264 264 263 262 262 262 261 261 262 263 262
262 261 261 261 261 261 261 261 261 261 260 260 260 260 260 260 260 259 259 259 260 260 260 260 260 260 260 260 259 259 260 262 263 264 263 262 262 262 262 262 263 262
263 263 262 262 262 261 261 261 261 261 261 261 261 260 260 260 260 260 260 259 259 259 260 260 260 260 261 260 260 260 260 260 261 262 263 263 262 262 262 262 262 263
264 264 263 263 263 262 262 261 261 261 261 261 261 261 261 261 260 260 260 260 260 259 259 260 260 260 260 261 261 260 260 260 261 261 262 262 262 262 262 262 262 263
266 265 264 264 264 263 263 262 262 261 261 261 261 261 261 261 261 261 260 260 260 260 260 259 259 260 260 260 260 261 261 260 260 261 261 261 262 262 262 262 262 263
267 267 266 265 265 264 264 263 263 262 262 261 261 261 261 261 261 261 260 260 260 260 260 260 259 259 259 260 260 260 261 261 260 260 260 261 261 261 261 261 261 262
268 268 267 267 266 266 265 264 264 264 263 263 262 262 261 261 261 260 260 260 260 260 260 259 259 259 259 259 259 260 260 260 261 261 261 261 261 261 261 261 261 261
268 268 268 267 267 267 266 266 265 265 264 263 263 263 262 262 261 261 261 260 260 260 260 259 259 259 259 259 259 259 259 260 260 260 261 261 261 261 261 261 261 261
269 269 268 268 267 267 267 266 266 265 265 264 264 263 263 262 262 262 261 261 261 260 260 260 259 259 259 259 258 258 259 259 260 260 260 261 261 261 261 261 261 261
271 270 270 269 268 268 267 266 266 265 265 265 264 264 263 263 262 262 262 261 261 261 261 260 260 260 259 259 258 258 258 258 259 259 260 260 261 261 261 261 261 261
273 272 272 271 270 269 268 267 267 266 265 265 264 264 263 263 263 262 262 262 261 261 261 261 261 260 260 259 259 258 258 258 258 258 259 259 260 260 261 261 261 261
276 275 274 273 272 271 270 269 268 267 266 265 264 264 263 263 262 262 262 262 261 261 261 261 261 260 260 260 259 259 258 258 258 258 258 258 259 259 260 260 261 261
278 277 276 275 274 273 272 270 269 268 267 266 265 264 264 263 262 262 262 261 261 261 261 261 260 260 260 260 260 259 259 258 258 258 258 258 258 258 259 259 260 260
280 279 278 276 275 274 273 272 271 269 268 267 266 265 264 264 263 262 262 261 261 261 260 260 260 260 260 260 260 260 259 259 258 258 258 258 258 258 258 259 259 260
281 280 279 277 276 275 273 272 271 270 269 268 267 266 265 264 264 263 262 261 261 261 260 260 260 260 259 259 259 259 259 259 259 258 258 258 258 258 258 258 258 259
282 281 280 278 277 275 274 273 271 270 269 268 267 266 265 265 264 263 263 262 261 261 260 260 260 259 259 259 259 259 259 259 259 258 258 258 258 258 258 258 258 258
284 283 281 279 278 277 275 274 272 271 270 268 267 266 265 264 264 263 262 262 261 261 260 260 260 260 259 259 259 259 258 258 258 258 258 258 258 258 258 258 258 258
286 284 283 281 279 278 277 275 274 272 271 270 269 267 266 265 264 263 262 262 261 261 260 260 260 260 259 259 259 259 258 258 258 258 257 257 258 257 257 257 257 257
287 286 284 283 281 280 279 277 276 275 273 272 271 270 268 267 266 265 264 263 262 261 261 260 260 260 260 259 259 259 258 258 258 257 257 257 257 257 257 257 257 257
290 288 286 285 283 282 281 280 278 277 276 275 273 272 271 270 268 267 266 265 264 263 262 261 261 261 260 260 259 259 259 258 258 258 257 257 257 257 257 257 257 257
292 290 289 287 286 285 283 282 281 280 278 277 276 275 273 272 271 270 268 267 266 265 264 263 262 262 261 261 260 260 259 259 258 258 257 257 257 257 257 257 257 257
294 292 291 289 288 287 286 285 283 282 281 279 278 277 275 274 273 272 271 270 268 267 266 265 264 264 263 263 262 261 260 260 259 258 258 258 257 257 257 257 257 257
295 294 292 291 290 289 287 286 285 283 282 281 280 278 277 276 274 273 272 271 270 269 268 267 266 265 265 264 263 263 262 261 260 260 259 259 258 258 258 257 257 257